TimeMDT,TemperatureF,Dew PointF,Humidity,Sea Level PressureIn,VisibilityMPH,Wind Direction,Wind SpeedMPH,Gust SpeedMPH,PrecipitationIn,Events,Conditions,WindDirDegrees,DateUTC
12:53 AM,46.0,21.0,37,29.92,10.0,North,4.6,-,N/A,,Clear,10,2013-06-13 06:53:00
1:53 AM,46.0,19.0,34,29.89,10.0,ENE,5.8,-,N/A,,Clear,60,2013-06-13 07:53:00
2:53 AM,46.9,19.0,33,29.89,10.0,South,4.6,-,N/A,,Clear,170,2013-06-13 08:53:00
3:53 AM,44.1,19.9,38,29.91,10.0,Calm,Calm,-,N/A,,Clear,0,2013-06-13 09:53:00
4:53 AM,41.0,19.9,43,29.94,10.0,NE,4.6,-,N/A,,Clear,50,2013-06-13 10:53:00
5:53 AM,39.9,19.9,45,29.96,10.0,ENE,3.5,-,N/A,,Clear,60,2013-06-13 11:53:00
6:53 AM,43.0,24.1,47,29.96,10.0,Variable,3.5,-,N/A,,Clear,0,2013-06-13 12:53:00
7:53 AM,51.1,30.0,44,29.92,10.0,Calm,Calm,-,N/A,,Clear,0,2013-06-13 13:53:00
8:53 AM,55.9,21.9,27,29.93,10.0,Calm,Calm,-,N/A,,Clear,0,2013-06-13 14:53:00
9:53 AM,63.0,21.9,21,29.92,10.0,South,9.2,-,N/A,,Clear,180,2013-06-13 15:53:00
10:53 AM,68.0,19.0,15,29.87,10.0,South,15.0,24.2,N/A,,Mostly Cloudy,180,2013-06-13 16:53:00
11:53 AM,66.9,19.0,16,29.91,10.0,Variable,6.9,29.9,N/A,,Overcast,0,2013-06-13 17:53:00
12:53 PM,69.1,18.0,14,29.90,10.0,SW,12.7,23.0,N/A,,Mostly Cloudy,220,2013-06-13 18:53:00
1:42 PM,66.2,21.2,18,30.41,10.0,West,16.1,28.8,N/A,,Mostly Cloudy,280,2013-06-13 19:42:00
1:53 PM,66.9,21.9,18,29.90,10.0,SSW,11.5,24.2,N/A,,Mostly Cloudy,200,2013-06-13 19:53:00
2:53 PM,71.1,21.0,15,29.87,10.0,SW,18.4,28.8,N/A,,Partly Cloudy,230,2013-06-13 20:53:00
3:53 PM,68.0,21.0,17,29.87,10.0,SW,9.2,-,N/A,,Mostly Cloudy,220,2013-06-13 21:53:00
4:02 PM,66.2,21.2,18,30.38,10.0,WSW,31.1,42.6,N/A,Thunderstorm,Unknown,240,2013-06-13 22:02:00
4:44 PM,64.4,30.2,28,30.37,10.0,South,8.1,-,0.01,,Clear,170,2013-06-13 22:44:00
4:53 PM,64.9,30.0,27,29.89,10.0,SSE,9.2,-,0.01,,Partly Cloudy,160,2013-06-13 22:53:00
5:53 PM,64.9,27.0,24,29.89,10.0,WSW,9.2,24.2,N/A,,Mostly Cloudy,240,2013-06-13 23:53:00
6:53 PM,64.9,24.1,21,29.86,10.0,South,8.1,-,N/A,,Clear,170,2013-06-14 00:53:00
7:53 PM,62.1,26.1,25,29.83,10.0,SSE,6.9,-,N/A,,Clear,160,2013-06-14 01:53:00
8:53 PM,57.9,25.0,28,29.83,10.0,SSE,4.6,-,N/A,,Clear,160,2013-06-14 02:53:00
9:53 PM,53.1,28.0,38,29.83,10.0,South,4.6,-,N/A,,Mostly Cloudy,170,2013-06-14 03:53:00
10:53 PM,50.0,35.1,57,29.86,10.0,Variable,3.5,-,0.00,Rain,Light Rain,0,2013-06-14 04:53:00
11:53 PM,50.0,34.0,54,29.85,10.0,SE,6.9,-,0.00,,Clear,130,2013-06-14 05:53:00